Погода Баяндай

Погода Баяндай : погода сейчас, прогноз погоды и архив. Всё, что Вы хотите узнать о погоде Баяндай!

Хотите узнать прогноз погоды Баяндай? Тогда Вам сюда: Погода Баяндай

Поиск расширенной информации на нашем сайте:

Полезная информация: хлорка для бассейна
Свадебные церемонии прокат авто в Москве

Другие новости

Новости СМИ2

Главная страница сайта

Новости сайта

02.10.2013

Напоминаем, что на нашем новом сайте вы можете получить высокодетализированные прогнозы погоды по пунктам России, СНГ и мира (включающие важные для авиации метеовеличины, такие как направление и скорость ветра, видимость, явления погоды, количество и форма облачности, нижняя и верхняя граница облачности), а также ознакомиться с разнообразными материалами по авиационной метеорологии и подборкой полезных ссылок на эту тему.

Сайт Метеоцентр.Азия посвящён разработке технологий оптимизации авиаметеорологического обслуживания, включая проектирование и перспективное создание нескольких автоматизированных авиаметеорологических систем:
- система выпуска высокодетальных прогностических карт явлений погоды для нижнего воздушного пространства по России и ближнему зарубежью;
- система верификации прогнозов TAF (выпускаемых синоптиками официальных АМСГ РФ и ближнего зарубежья) и AUTOTAF (выпускаемых сайтом Метеоцентр.Азия) - выявление ошибок, онлайн-сопоставление с фактической погодой METAR, автоматическое внесение коррективов в прогнозы при резком отклонении фактической погоды от прогноза, подсчёт оправдываемости прогнозов по элементам и в целом;
- система обработки, анализа и отображения авиаметеорологической информации для применения провайдерами метеорологической информации.

Рекомендуем: Issuu автоматические Роботы очистители для бассейнов новаяволна.рф.

Погода Баяндай - сегодня

Время (UTC), дата Ветер
(°,м/с) 
Видим.   Явления Облачность Т
(°С)
Тd
(°С)
f(%) Тe
(°С)
Pmin
(гПа)
dP
(гПа)
Po
(мм)
O2
(г/м3)
Тmin Tmax R s Состояние
почвы
03 20.03.17 060 (СВ) 20000 м    ясно 
-9.9 -15.2 65 -12  1035.3  0.3  704  296           
06 20.03.17 050 (СВ) 20000 м    ясно 
-1.9 -14.8 37 -3  1030.9  -1.2  703  286           
09 20.03.17 130 (ЮВ) 20000 м    ясно 
+0.2 -14 33 +1  1028.7  -1.3  702  284           
12 20.03.17 030 (СВ) 20000 м    ясно 
-2.7 -17.3 32 -4  1030  0.2  702  287    +0.8       
15 20.03.17 310 (СЗ) 20000 м    ясно 
-4.1 -19.1 30 -4  1030.4  -0.1  702  289           
18 20.03.17 250 (З) 20000 м    ясно 
-8 -21.5 33 -10  1032.1  0.2  702  293           
21 20.03.17 250 (З) 20000 м    ясно 
-11.2 -17.4 60 -11  1032.9  -0.3  702  296           
00 21.03.17 тихо ()   20000 м    1/0 верхняя 
[Ci fib]
-12.6 -16.1 75 -13  1034.2  0.4  702  298  -13.5      25  равномерный
сухой снег
100% 
03 21.03.17 тихо ()   20000 м    ясно 
-6.1 -14.7 51 -6  1032  0.5  703  291           
06 21.03.17 180 (Ю) 20000 м    ясно 
-4.3 -11.7 56 -4  1030.9  -0.4  703  289           
09 21.03.17 тихо ()   20000 м    ясно 
-2.5 -12.4 46 -3  1029.5  -0.7  702  286           
12 21.03.17 тихо ()   20000 м    1/0 верхняя 
[Ci fib]
-3.8 -12.5 51 -4  1029.9  -0.1  702  288    -1.5       
15 21.03.17 тихо ()   20000 м    ясно 
-5.4 -13 55 -5  1030.3  -0.1  702  290           
18 21.03.17 030 (СВ) 20000 м    ясно 
-7.4 -13.9 60 -7  1031  -0.1  702  292           
21 21.03.17 030 (СВ) 20000 м    ясно 
-9.5 -14.7 66 -9  1031.4  -0.3  702  294           
00 22.03.17 030 (СВ) 20000 м    4/0 верхняя 
[Ci fib]
-9.7 -14.9 66 -11  1032.6  702  295  -13      25  равномерный
сухой снег
100% 
03 22.03.17 110 (В) 20000 м    ясно 
-3.9 -10.1 62 -3  1031.4  0.9  703  288           
06 22.03.17 180 (Ю) 20000 м    6/3 1000 м верхняя 
[Cu med, cong|Ci fib]
-0.8 -9 54 1029.9  -0.4  703  285           
09 22.03.17 110 (В) 20000 м    10/3 1000 м верхняя 
[Cu med, cong|Cs]
+0.4 -10.2 45 +1  1029.2  -0.3  702  283           
12 22.03.17 360 (С) 20000 м    10/0 верхняя 
[Cs]
-1.8 -13.3 41 -1  1030.2  0.3  703  286    +0.6       
15 22.03.17 тихо ()   20000 м    4/0 верхняя 
[Ci fib]
-5.7 -13.4 55 -6  1032.6  0.9  703  291           
18 22.03.17 тихо ()   20000 м    10/0 верхняя 
[Cs]
-7.1 -12.4 66 -7  1033.8  0.6  704  292           
21 22.03.17 230 (ЮЗ) 20000 м    3/0 верхняя 
[Ci fib]
-8.2 -11.9 75 -8  1034.6  0.3  704  293           
00 23.03.17 270 (З) 20000 м    10/0 верхняя 
[Cs]
-9.1 -13 73 -9  1035.4  0.5  704  295  -9.9      25  равномерный
сухой снег
100% 
03 23.03.17 220 (ЮЗ) 20000 м    10/0 верхняя 
[Cs]
-5.9 -11.7 64 -7  1035.3  705  291           
Время (UTC), дата Ветер
(°,м/с) 
Видим.   Явления Облачность Т
(°С)
Тd
(°С)
f(%) Тe
(°С)
Pmin
(гПа)
dP
(гПа)
Po
(мм)
O2
(г/м3)
Тmin Tmax R s Состояние
почвы

Для получения пояснительной информации подведите курсор к названию столбца.

ПОГОДА Баяндай - архив

Всё, что Вы хотите узнать о погоде Баяндай - удобно и подробно!

Выберите нужную дату (начиная с 1 января 2015* года) и нажмите кнопку "Найти".
Будут отображены архивные сводки погоды по пункту Баяндай, начиная с указанной даты.


Отображать данные в формате CSV (для использования в таблицах Excel)


Внимание! Наш архив погоды предназначен исключительно для личного некоммерческого использования в познавательных целях. Если Вам необходимы официальные справки о состоянии погоды (для производственных, юридических, коммерческих и т.п. целей), обращайтесь в органы Росгидромета.

*Примечание: данная дата относится к архиву по метеостанциям СССР (Россия, СНГ, Балтия).
Архив по метеостанциям Зарубежной Европы и Азии (кроме Китая) хранится 10 дней, по другим регионам земного шара (Китай, Африка, Америка, Австралия, Океания) - 1 день.

Баяндай - район местоположения метеостанции


Название, широта, долгота, высота метеостанции:
Баяндай 53.1°ш. 105.5°д. 762 м над ур. моря [Российская Федерация]

Дополнительная информация

В oтличие oт бoльшинства пoгoдных сайтoв мы публикуем пoдрoбную метеoинфoрмацию в детальнoм прoфессиoнальнoм фoрмате.

Характеристики температуры и влажнoсти вoздуха измеряются на высoте 2 м в тени вдали oт зданий и деревьев.
Скoрoсть ветра измеряется на высoте 10 м (на урoвне рoста челoвека скoрoсть ветра ниже в 1.5-2 раза). Если метеoстанция нахoдится в гoрoде или в лесу, тo скoрoсть ветра занижена на 2-4 м/с пo сравнению с oткрытым местoм. Скoрoсть ветра над акватoриями крупных рек и oзёр, а также на вершинах хoлмoв на 2-5 м/с выше, чем в oбычных услoвиях.
Атмoсфернoе давление в разных тoчках местнoсти мoжет значительнo oтличаться oт давления на метеoстанции, в зависимoсти oт услoвий рельефа (при пoдъёме на 10 м давление пoнижается примернo на 1 мм рт.ст.).